Regional Weather Roundup
Issued by NWS Newport/Morehead, NC

Current Version | Previous Version | Text Only | Print | Product List | Glossary Off
Versions: 1 2 3 4 5 6 7 8 9 10 11 12 13 14 15 16 17 18 19 20 21 22 23 24 25 26 27 28 29 30 31 32 33 34 35 36 37 38 39 40 41 42 43 44 45 46 47 48 49 50
000 ASUS42 KMHX 241710 RWRMHX WEATHER ROUNDUP FOR EASTERN NORTH CAROLINA NATIONAL WEATHER SERVICE NEWPORT/MOREHEAD CITY NC 100 PM EDT FRI OCT 24 2014 NOTE: "FAIR" INDICATES FEW OR NO CLOUDS BELOW 12,000 FEET WITH NO SIGNIFICANT WEATHER AND/OR OBSTRUCTIONS TO VISIBILITY NCZ015>017-031-032-045>047-102-103-241800- NORTH COAST CITY SKY/WX TMP DP RH WIND PRES REMARKS EDENTON MOSUNNY 65 46 51 N12 29.99F ELIZABETH CITY MOSUNNY 66 46 48 NW13 29.97F KITTY HAWK MOSUNNY 63 48 57 N5 29.96F MANTEO SUNNY 61 48 62 W10 29.97F $$ NCZ045>047-081-094-103-104-241800- CENTRAL COAST CITY SKY/WX TMP DP RH WIND PRES REMARKS FRISCO SUNNY 62 48 60 NW9 29.98F SWANQUARTER N/A 66 N/A N/A NW8G18 29.94F $$ NCZ095-097-098-100-101-241800- SOUTHERN COAST CITY SKY/WX TMP DP RH WIND PRES REMARKS BEAUFORT CLOUDY 66 47 50 NW7 30.01F CEDAR ISLAND N/A 63 N/A N/A NW15 30.03F JACKSONVILLE PTSUNNY 66 46 48 VRB3 30.02F PINEY ISLAND MOSUNNY 67 46 47 N10 29.99F WILMINGTON PTSUNNY 67 47 48 CALM 30.03F $$ NCZ011>013-027>030-043-044-078>080-089-090>093-098-241800- COASTAL PLAIN CITY SKY/WX TMP DP RH WIND PRES REMARKS AHOSKIE MOSUNNY 65 42 43 N12 29.99F CLINTON MOSUNNY 67 48 50 W3 30.03F ELIZABETHTOWN MOSUNNY 65 45 47 CALM 30.04F GOLDSBORO MOSUNNY 67 51 57 W5 30.00F GREENVILLE MOSUNNY 68 43 40 N3 30.02F HAVELOCK CLOUDY 66 45 46 NW6 30.02F KENANSVILLE SUNNY 67 44 44 NW3 30.03F KINSTON PTSUNNY 68 46 45 W3 30.02F NEW BERN PTSUNNY 69 46 43 VRB6 30.01F RICHLANDS PTSUNNY 66 45 45 W6 30.02F ROCKY MOUNT MOSUNNY 68 46 45 CALM 30.01F WASHINGTON MOSUNNY 64 47 53 N5 30.01F WHITEVILLE MOSUNNY 65 46 50 CALM 30.03F $$ AMZ130-135-150-152-154-156-158-170-250-252-270-ANZ085-086-088-633-658-670-241800- MARINE OBSERVATIONS STATION/POSITION TIME TEMP WIND PRES WAVE SWELL AIR SEA DIR/SP/G HT/PER HT/PER (UTC) (F) (DEG/KT/KT) (MB) (FT/S) (FT/S) CHESAPEAKE LIGHT 1600 59 320/ 20/ 22 1015.0 64 E VA BEACH 1700 61 67 320/ 17/ 21 1012.7 7/ 6 DUCK 1700 61 66 340/ 13/ 15 1013.7 2 E DUCK 1700 N/A 4/ 6 10 NE DUCK 1700 68 N/A 5/ 6 OREGON INLET 1700 61 63 320/ 12/ 15 1014.7 13E OREGON INLT 1700 70 N/A 5/ 7 2/11 HATTERAS CG 1700 60 63 320/ 14/ 17 1015.6 DIAMOND BUOY 1700 62 320/ 14/ 17 1015.1 4/ 9 2/ 9 17 S OCRACOKE NOT AVBL CAPE LOOKOUT 1600 63 340/ 10/ 11 1016.7 BEAUFORT LAB 1700 64 67 350/ 5/ 10 1015.5 30 SE NEW RIVER 1600 64 75 20/ 10/ 12 1016.6 5 SE WRIGHTSVLE 1700 60 72 40/ 6/ 8 N/A 225 S CAPE HAT 1641 73 78 330/ 10/ 12 1015.5 5/10 5/10 41 SE CHARLESTON 1700 69 78 10/ 6/ 10 1016.6 3/11 3/11 $$

USA.gov is the U.S. government's official web portal to all federal, state and local government web resources and services.